Flag for India Weather past 2 weeks in Vasai-Virar, Maharashtra, India

Now
75 °F

Clear.


Feels Like: 77 °F
Forecast: 64 / 86 °F
Wind: 8 mph from East

Location: Bombay / Santacruz

Current Time: Dec 28, 2014 at 10:56:40 AM

Latest Report: Dec 28, 2014 at 9:40 AM


Visibility: 1 mi

Pressure: 29.98 "Hg

Humidity: 36%

Dew point: 46 °F

Location of Vasai-VirarLocation

Historic Weather in Vasai-Virar — Graph

°F

Vasai-Virar temperature yesterday

Maximum temperature yesterday: 88 °F (at 3:40 PM)
Minimum temperature yesterday: 70 °F (at 7:10 AM)
Average temperature yesterday: 77 °F

Past Weeks' High & Low Weather Summary

 TemperatureHumidityPressure
High90 °F (Dec 16, 2:40 PM)89% (Dec 13, 9:10 AM)30.04 "Hg (Dec 13, 9:10 AM)
Low66 °F (Dec 15, 4:10 AM)18% (Dec 15, 2:40 PM)29.80 "Hg (Dec 22, 3:10 PM)
Average78 °F46%29.94 "Hg
* Reported Dec 13 9:10 AM — Dec 28 8:40 AM, Vasai-Virar, Weather by CustomWeather, © 2014

Note: Actual official high and low records may vary slightly from our data, if they occured in-between our weather recording intervals... More about our weather records

Advertising

Vasai-Virar weather history for previous 24 hours

 ConditionsComfort  
Time TempWeatherWind HumidityBarometerVisibility
8:40 AM
Dec 28
72 °FClear.9 mph41%29.98 "Hg1 mi
7:40 AM70 °FClear.8 mph43%29.95 "Hg1 mi
6:40 AM66 °FClear.6 mph52%29.92 "Hg1 mi
5:40 AM68 °FClear.6 mph49%29.92 "Hg1 mi
4:40 AM72 °FClear.3 mph47%29.89 "Hg1 mi
3:40 AM73 °FClear.3 mph44%29.89 "Hg1 mi
2:40 AM70 °FClear.No wind53%29.89 "Hg1 mi
1:40 AM75 °FClear.3 mph44%29.89 "Hg1 mi
12:40 AM75 °FClear.No wind44%29.92 "Hg1 mi
11:40 PM
Dec 27
73 °FClear.No wind50%29.92 "Hg1 mi
10:40 PM75 °FClear.3 mph50%29.95 "Hg1 mi
9:40 PM77 °FClear.No wind47%29.92 "Hg1 mi
8:40 PM77 °FClear.No wind47%29.92 "Hg1 mi
7:40 PM79 °FClear.3 mph42%29.92 "Hg1 mi
6:40 PM79 °FClear.7 mph48%29.89 "Hg1 mi
4:40 PM86 °FClear.9 mph31%29.86 "Hg2 mi
3:40 PM88 °FClear.No wind24%29.86 "Hg2 mi
2:30 PM86 °FClear.5 mph25%29.89 "Hg2 mi
1:40 PM86 °FClear.8 mph27%29.89 "Hg2 mi
12:40 PM84 °FClear.10 mph29%29.92 "Hg2 mi
11:40 AM81 °FClear.10 mph32%29.95 "Hg2 mi
10:40 AM79 °FClear.9 mph32%29.98 "Hg1 mi
Weather by CustomWeather, © 2014

See weather overviewHow to use our weather pages